www.pogodaiklimat.ru
ПОГОДА в Окснарде
Время
и дата
23:58 19.07
00:27 20.07
00:34 20.07
00:49 20.07
00:51 20.07
01:00 20.07
01:09 20.07
01:31 20.07
01:38 20.07
01:51 20.07
02:51 20.07
02:59 20.07
03:18 20.07
03:51 20.07
04:51 20.07
05:25 20.07
05:51 20.07
06:51 20.07
07:51 20.07
08:11 20.07
08:19 20.07
08:42 20.07
08:51 20.07
09:38 20.07
09:51 20.07
10:51 20.07
11:51 20.07
12:51 20.07
13:51 20.07
14:51 20.07
15:51 20.07
16:51 20.07
17:51 20.07
18:51 20.07
19:51 20.07
20:51 20.07
21:51 20.07
22:51 20.07
23:51 20.07
00:51 21.07
01:51 21.07
02:51 21.07
03:51 21.07
04:51 21.07
05:49 21.07
05:51 21.07
05:58 21.07
06:51 21.07
Ветер
(напр.,м/с)
Видим. Явления Облачность Т
(С)
Тd
(С)
f
(%)
Тe
(С)
Тes
(С)
Комфортность P
(гПа)
Po
(гПа)
Тmin
(С)
Tmax
(С)
R
(мм)
R24
(мм)
S
(см)
З 3 400 м туман ?/? +16.1 +15.6 97 +16 +16 1011.9
З 3 800 м туман ?/? +15.6 +15.0 96 +15 +15 1011.5
З 3 400 м туман ?/? +15.6 +15.0 96 +15 +15 1011.9
З 3 800 м туман ?/? +16.0 +15.0 94 +15 +15 1011.5
З 2 800 м туман ?/? +15.6 +15.0 96 +15 +15 1013.2 1011.5
З 2 400 м туман ?/? +15.6 +15.0 96 +15 +15 1011.5
З 2 800 м туман ?/? +15.6 +15.0 96 +15 +15 1011.5
З 2 400 м туман ?/? +15.6 +15.0 96 +15 +15 1011.5
З 3 800 м туман ?/? +15.6 +15.0 96 +15 +15 1011.5
З 2 800 м туман ?/? +15.6 +15.0 96 +15 +15 1013.2 1011.5
С 2 800 м туман ?/? +15.6 +15.0 96 +15 +15 1013.1 1011.5
С 2 400 м туман ?/? +15.6 +15.0 96 +15 +15 1011.5
СЗ 2 800 м туман ?/? +15.6 +15.0 96 +15 +15 1011.2
штиль 0 800 м туман ?/? +15.6 +15.0 96 +15 +15 1013.1 1011.5 +15.6 +16.1
С 2 800 м туман ?/? +15.6 +14.4 93 +15 +15 1013.4 1011.9
СЗ 3 400 м туман ?/? +15.6 +14.4 93 +15 +15 1012.2
СЗ 2 400 м туман ?/? +15.0 +14.4 96 +15 +15 1013.8 1012.2
З 2 400 м туман ?/? +15.6 +15.0 96 +15 +15 1014.4 1012.9
З 3 800 м туман ?/? +16.1 +15.6 97 +16 +16 1014.5 1012.9
З 4 2 км дымка 10/10 60 м +16.1 +15.6 97 +15 +15 1012.9
З 4 5 км дымка 10/10 60 м +16.7 +15.6 93 +16 +16 1012.9
З 5 10 км дымка 10/10 90 м +17.8 +15.6 87 +17 +17 1012.9
З 5 13 км 10/10 90 м +17.8 +15.6 87 +17 +17 1014.5 1012.9
З 5 16 км 10/10 150 м +18.9 +15.6 81 +20 +20 1012.9
З 5 16 км 10/10 150 м +19.4 +15.6 79 +21 +21 комфорт 1014.5 1012.9 +15.0 +19.4
З 6 16 км 8/8 180 м +20.0 +15.6 76 +22 +23 комфорт 1014.2 1012.5
З 6 16 км 8/8 180 м +20.6 +15.6 73 +23 +25 комфорт 1014.2 1012.5
З 6 16 км 5/5 210 м +20.6 +15.6 73 +23 +28 комфорт 1013.9 1012.2
З 7 16 км ясно +21.7 +15.6 68 +25 +31 комфорт 1013.3 1011.9
З 6 16 км ясно +21.7 +15.6 68 +25 +32 комфорт 1012.8 1011.2
З 6 16 км ясно +21.7 +15.6 68 +25 +30 комфорт 1012.0 1010.5 +18.9 +22.2
З 6 16 км ясно +20.6 +15.6 73 +23 +26 комфорт 1011.5 1009.8
З 6 13 км ясно +19.4 +15.6 79 +21 +22 комфорт 1011.6 1010.2
З 6 11 км ясно +18.3 +15.6 84 +18 +18 1011.7 1010.2
З 4 13 км ясно +17.2 +15.0 87 +17 +17 1012.0 1010.5
З 4 11 км ясно +17.2 +15.6 90 +17 +17 1012.1 1010.5
З 3 11 км ясно +17.2 +15.6 90 +17 +17 1011.9 1010.5 +16.7 +21.7
З 3 11 км ясно +17.2 +15.6 90 +17 +17 1011.9 1010.5
З 2 11 км ясно +16.7 +15.0 90 +17 +17 1011.9 1010.5
З 2 14 км ясно +16.7 +14.4 86 +17 +17 1011.7 1010.2
штиль 0 13 км ясно +16.7 +15.0 90 +17 +17 1011.7 1010.2
З 2 11 км ясно +16.1 +14.4 90 +16 +16 1011.4 1009.8
З 2 11 км ясно +15.6 +14.4 93 +15 +15 1011.5 1010.2 +15.6 +17.2
З 2 10 км дымка ясно +15.6 +14.4 93 +15 +15 1011.6 1010.2
З 2 6 км дымка 5/5 150 м +17.0 +16.0 94 +17 +17 1010.5
З 2 6 км дымка 5/5 150 м +16.7 +15.6 93 +17 +17 1012.0 1010.5
З 3 8 км дымка 8/8 150 м +16.7 +15.6 93 +16 +16 1010.5
СЗ 2 11 км 2/2 150 м +17.8 +16.1 90 +18 +19 1012.6 1011.2
Местоположение метеостанции Oxnard Airport: широта 34.2006 долгота -119.2031 высота над уровнем моря 13 м.
В архиве по умолчанию представлена погода в Окснарде за последние 1-2 суток. Обновление информации о фактической погоде в базе происходит ежечасно! Архивные данные за месяц целиком и за предыдущие месяцы Вы можете получить, выбрав интересующий диапазон дат из раскрывающегося списка и нажав кнопку "Ввод!".
Внимание! Архив погоды МЕТАР в базе сайта по станциям, не включенным в климатический монитор, хранится не более 60 дней. Нет смысла пытаться выбрать более раннюю дату.
*Определитесь, кто Вы:
Внимание! Время в таблицах - местное (без учета летнего времени). Для получения всемирного времени необходимо вычесть поправку, которая равна -8 ч.
Смотрите также архив погоды в соседних городах и на ближайших метеорологических станциях:
Партнеры нашего сайта:      
Пояснения к столбцам:
  • Ветер - указаны скорость ветра в м/с - средняя за 10 мин, порывы в срок и между сроками (в фигурных скобках) и направление, откуда дует ветер: С - северный,
  • СВ - северо-восточный, В - восточный, ЮВ - юго-восточный, Ю - южный, ЮЗ - юго-западный, З - западный, СЗ - северо-западный.
  • Видимость - горизонтальная дальность видимости в метрах или километрах. При видимости от 1 до 10 км при отсутствии осадков обычно наблюдается дымка, при ухудшении видимости до 1 км и менее - туман. В сухую погоду видимость может ухудшаться дымом, пылью или мглою.
  • Явления - указаны атмосферные явления, наблюдавшиеся в срок или в последний час перед сроком; фигурными скобками обозначены явления, наблюдавшиеся между сроками (за 1-3 часа до срока); квадратными скобками обозначены град или гололедные отложения с указанием их диаметра в мм.
  • Облачность - указаны через наклонную черту общая и нижняя облачность в баллах и высота нижней границы облаков в метрах; квадратными скобками обозначены формы облаков: Ci - перистые, Cs - перисто-слоистые, Cc - перисто-кучевые, Ac - высококучевые, As - высокослоистые, Sc - слоисто-кучевые, Ns - слоисто-дождевые, Cu - кучевые, Cb - кучево-дождевые. Подробнее классификацию облаков см. в Атласе облаков (PDF).
  • T - Температура воздуха - температура, измеренная на высоте 2 м над землей.
  • Td - Температура точки росы - температура, при понижении до которой содержащийся в воздухе водяной пар достигнет насыщения.
  • f - Относительная влажность воздуха - влажноcть воздуха, измеренная на высоте 2 м над землей.
  • Te - Эффективная температура - температура, которую ощущает одетый по сезону человек в тени. Характеристика душности погоды. При расчете учитывается влияние влажности воздуха и скорости ветра на теплоощущения человека.
  • Tes - Эффективная температура на солнце - температура, которую ощущает человек, с поправкой на солнечный нагрев. Характеристика знойности погоды. Зависит от высоты солнца над горизонтом, облачности и скорости ветра. Ночью, в пасмурную погоду, а также при ветре 12 м/с и более поправка равна нулю.
  • P - Атмосферное давление - приведенное к уровню моря атмосферное давление.
  • Po - Атмосферное давление - измеренное на уровне метеостанции атмосферное давление.
  • Tmin - Минимальная температура - минимум температуры воздуха на высоте 2 м над землей.
  • Tmax - Максимальная температура - максимум температуры воздуха на высоте 2 м над землей.
  • R - Количество осадков - Количество выпавших осадков за период времени, мм. При наведении курсора мыши на число - период времени, за который выпало указанное количество осадков.
  • R24 - Количество осадков - Количество выпавших осадков за 24 часа, мм.
  • S - Снежный покров - Высота снежного покрова, см. При наведении курсора мыши на число - состояние снежного покрова и степень покрытия местности в баллах.